Weather History for Springfield, MO

Change the Weather History Date:

Tuesday, October 25, 2011

  Actual Average Record
Temperature  
Mean Temperature 68 °F 55 °F  
Max Temperature 80 °F 66 °F 85 °F (1939)
Min Temperature 55 °F 44 °F 28 °F (1968)
Degree Days  
Heating Degree Days 0 10  
Month to date heating degree days 160 183  
Since 1 July heating degree days 253 238  
Cooling Degree Days 3 0  
Month to date cooling degree days 26 27  
Year to date cooling degree days 1818 1386  
Growing Degree Days 18 (Base 50)    
Moisture  
Dew Point 54 °F    
Average Humidity 64    
Maximum Humidity 86    
Minimum Humidity 42    
Precipitation  
Precipitation 0.00 in 0.12 in 2.90 in (1932)
Month to date precipitation 1.20 2.90  
Year to date precipitation 32.41 37.62  
Snow  
Snow 0.00 in - - ()
Month to date snowfall 0.0  
Since 1 July snowfall 0.0  
Since 1 September snowfall 0.0  
Snow Depth 0.00 in    
Sea Level Pressure  
Sea Level Pressure 29.94 in    
Wind  
Wind Speed 17 mph (South)    
Max Wind Speed 33 mph    
Max Gust Speed 41 mph    
Visibility 10 miles    
Events      
T = Trace of Precipitation, MM = Missing Value Source: NWS Daily Summary

Daily Weather History Graph

Daily Weather History Graph

Search for Another Location

Airport:

Trip Planner

Search our weather history database for the weather conditions in past years. The results will help you decide how hot, cold, wet, or windy it might be!

Date:

Astronomy

Oct. 25, 2011 Rise Set
Actual Time 7:30 AM CDT 6:23 PM CDT
Civil Twilight 7:04 AM CDT 6:50 PM CDT
Nautical Twilight 6:33 AM CDT 7:21 PM CDT
Astronomical Twilight 6:03 AM CDT 7:51 PM CDT
Moon 6:04 AM CDT (10/25) 5:25 PM CDT (10/25)
Length of Visible Light 11h 46m
Length of Day
10h 53m
Waning Crescent, 2% of the Moon is Illuminated
Oct 25
Waning Crescent
Oct 26
New
Nov 2
First Quarter
Nov 10
Full
Nov 18
Last Quarter

Hourly Weather History & Observations

Time (CDT) Temp. Heat Index Dew Point Humidity Pressure Visibility Wind Dir Wind Speed Gust Speed Precip Events Conditions
12:52 AM 59.0 °F - 51.1 °F 75% 30.09 in 10.0 mi SSE 11.5 mph - N/A   Clear
1:52 AM 55.9 °F - 51.1 °F 84% 30.07 in 10.0 mi SSE 11.5 mph - N/A   Clear
2:52 AM 57.9 °F - 51.1 °F 78% 30.06 in 10.0 mi South 13.8 mph - N/A   Clear
3:52 AM 57.0 °F - 51.1 °F 81% 30.05 in 10.0 mi South 12.7 mph - N/A   Clear
4:52 AM 57.0 °F - 51.1 °F 81% 30.03 in 10.0 mi SSE 16.1 mph - N/A   Clear
5:52 AM 55.9 °F - 50.0 °F 80% 30.01 in 10.0 mi SSE 17.3 mph - N/A   Clear
6:52 AM 55.0 °F - 48.9 °F 80% 30.02 in 10.0 mi SSE 15.0 mph - N/A   Clear
7:52 AM 55.9 °F - 50.0 °F 80% 30.02 in 10.0 mi SSE 16.1 mph - N/A   Clear
8:52 AM 59.0 °F - 51.1 °F 75% 30.00 in 10.0 mi SSE 21.9 mph 26.5 mph N/A   Clear
9:52 AM 63.0 °F - 52.0 °F 67% 29.99 in 10.0 mi South 21.9 mph 29.9 mph N/A   Clear
10:52 AM 68.0 °F - 55.0 °F 63% 29.97 in 10.0 mi South 20.7 mph 27.6 mph N/A   Clear
11:52 AM 73.9 °F - 57.0 °F 55% 29.94 in 10.0 mi South 23.0 mph 32.2 mph N/A   Clear
12:52 PM 78.1 °F - 57.9 °F 50% 29.90 in 10.0 mi SSW 23.0 mph 31.1 mph N/A   Clear
1:52 PM 79.0 °F - 57.0 °F 47% 29.88 in 10.0 mi SSW 27.6 mph 40.3 mph 0.00 in   Clear
2:52 PM 80.1 °F 80.2 °F 55.9 °F 43% 29.84 in 10.0 mi SSW 28.8 mph 41.4 mph N/A   Clear
3:52 PM 78.8 °F - 55.4 °F 44% 29.86 in 10.0 mi South 26.5 mph 32.2 mph N/A   Clear
4:52 PM 75.9 °F - 55.0 °F 48% 29.83 in 10.0 mi South 23.0 mph 33.4 mph N/A   Clear
5:52 PM 75.0 °F - 55.9 °F 51% 29.82 in 10.0 mi South 20.7 mph - N/A   Clear
6:52 PM 70.0 °F - 55.9 °F 61% 29.85 in 10.0 mi SSW 10.4 mph - N/A   Clear
7:52 PM 66.9 °F - 55.9 °F 68% 29.86 in 10.0 mi South 9.2 mph - N/A   Clear
8:52 PM 69.1 °F - 55.9 °F 63% 29.87 in 10.0 mi South 10.4 mph - N/A   Clear
9:52 PM 69.1 °F - 55.9 °F 63% 29.88 in 10.0 mi South 10.4 mph - N/A   Partly Cloudy
10:52 PM 69.1 °F - 57.0 °F 65% 29.88 in 10.0 mi South 10.4 mph - N/A   Mostly Cloudy
11:52 PM 69.1 °F - 57.9 °F 68% 29.86 in 10.0 mi SSW 11.5 mph - N/A   Mostly Cloudy